Time,TemperatureF,DewpointF,PressureIn,WindDirection,WindDirectionDegrees,WindSpeedMPH,WindSpeedGustMPH,Humidity,HourlyPrecipIn,Conditions,Clouds,dailyrainin,SoftwareType,DateUTC
2015-07-31 00:00:00,78.1,38.3,30.11,NE,47,0.9,3.0,24,-99.99,,,0.00,meteobridge,2015-07-31 07:00:00,
2015-07-31 00:05:00,77.7,38.1,30.11,NE,48,0.9,1.0,24,-99.99,,,0.00,meteobridge,2015-07-31 07:05:00,
2015-07-31 00:10:00,77.7,38.1,30.11,ESE,107,0.0,5.0,24,-99.99,,,0.00,meteobridge,2015-07-31 07:10:00,
2015-07-31 00:15:00,77.7,38.1,30.11,ENE,59,2.9,5.0,24,-99.99,,,0.00,meteobridge,2015-07-31 07:15:00,
2015-07-31 00:20:00,77.4,37.8,30.11,NE,52,2.0,3.0,24,-99.99,,,0.00,meteobridge,2015-07-31 07:20:00,
2015-07-31 00:25:00,77.4,37.8,30.11,NE,52,0.0,0.0,24,-99.99,,,0.00,meteobridge,2015-07-31 07:25:00,
2015-07-31 00:30:00,77.2,37.6,30.11,NE,52,0.0,1.0,24,-99.99,,,0.00,meteobridge,2015-07-31 07:30:00,
2015-07-31 00:36:00,77.2,37.6,30.11,NE,52,0.9,1.0,24,-99.99,,,0.00,meteobridge,2015-07-31 07:36:00,
2015-07-31 00:41:00,77.0,38.5,30.10,NE,52,0.0,1.0,25,-99.99,,,0.00,meteobridge,2015-07-31 07:41:00,
2015-07-31 00:46:00,76.8,38.3,30.10,NE,49,0.0,2.0,25,-99.99,,,0.00,meteobridge,2015-07-31 07:46:00,
2015-07-31 00:51:00,76.6,37.2,30.10,NE,52,0.0,1.0,24,-99.99,,,0.00,meteobridge,2015-07-31 07:51:00,
2015-07-31 00:56:00,76.6,37.2,30.10,NE,52,0.9,2.0,24,-99.99,,,0.00,meteobridge,2015-07-31 07:56:00,
2015-07-31 01:01:00,76.3,36.9,30.10,NE,51,0.0,1.0,24,-99.99,,,0.00,meteobridge,2015-07-31 08:01:00,
2015-07-31 01:06:00,76.1,36.7,30.10,NE,51,0.9,1.0,24,-99.99,,,0.00,meteobridge,2015-07-31 08:06:00,
2015-07-31 01:12:00,75.9,37.6,30.10,NE,51,0.0,2.0,25,-99.99,,,0.00,meteobridge,2015-07-31 08:12:00,
2015-07-31 01:17:00,75.7,37.4,30.10,ENE,59,0.9,3.0,25,-99.99,,,0.00,meteobridge,2015-07-31 08:17:00,
2015-07-31 01:22:00,75.6,36.3,30.10,NE,51,0.0,2.0,24,-99.99,,,0.00,meteobridge,2015-07-31 08:22:00,
2015-07-31 01:27:00,75.4,36.1,30.10,NE,51,2.0,2.0,24,-99.99,,,0.00,meteobridge,2015-07-31 08:27:00,
2015-07-31 01:32:00,75.4,37.0,30.10,NE,48,0.9,2.0,25,-99.99,,,0.00,meteobridge,2015-07-31 08:32:00,
2015-07-31 01:37:00,75.0,36.9,30.10,East,99,2.0,3.0,25,-99.99,,,0.00,meteobridge,2015-07-31 08:37:00,
2015-07-31 01:42:00,74.8,36.7,30.10,East,100,0.9,2.0,25,-99.99,,,0.00,meteobridge,2015-07-31 08:42:00,
2015-07-31 01:47:00,74.7,36.5,30.10,East,97,0.0,2.0,25,-99.99,,,0.00,meteobridge,2015-07-31 08:47:00,
2015-07-31 01:52:00,74.3,37.2,30.10,ESE,106,0.9,2.0,26,-99.99,,,0.00,meteobridge,2015-07-31 08:52:00,
2015-07-31 01:57:00,74.1,37.0,30.11,East,95,0.9,2.0,26,-99.99,,,0.00,meteobridge,2015-07-31 08:57:00,
2015-07-31 02:02:00,73.8,37.8,30.11,East,96,0.0,2.0,27,-99.99,,,0.00,meteobridge,2015-07-31 09:02:00,
2015-07-31 02:07:00,73.6,37.6,30.11,East,88,0.9,5.0,27,-99.99,,,0.00,meteobridge,2015-07-31 09:07:00,
2015-07-31 02:12:00,73.4,37.4,30.11,East,93,0.0,3.0,27,-99.99,,,0.00,meteobridge,2015-07-31 09:12:00,
2015-07-31 02:17:00,73.2,37.2,30.11,East,89,0.9,2.0,27,-99.99,,,0.00,meteobridge,2015-07-31 09:17:00,
2015-07-31 02:22:00,73.0,37.9,30.11,East,88,0.0,0.0,28,-99.99,,,0.00,meteobridge,2015-07-31 09:22:00,
2015-07-31 02:27:00,72.7,36.9,30.10,East,86,0.0,3.0,27,-99.99,,,0.00,meteobridge,2015-07-31 09:27:00,
2015-07-31 02:32:00,72.7,36.9,30.10,East,85,0.0,0.0,27,-99.99,,,0.00,meteobridge,2015-07-31 09:32:00,
2015-07-31 02:38:00,72.5,36.7,30.11,East,86,0.0,1.0,27,-99.99,,,0.00,meteobridge,2015-07-31 09:38:00,
2015-07-31 02:43:00,72.0,37.0,30.11,East,89,0.0,2.0,28,-99.99,,,0.00,meteobridge,2015-07-31 09:43:00,
2015-07-31 02:48:00,72.0,37.0,30.11,East,86,2.0,2.0,28,-99.99,,,0.00,meteobridge,2015-07-31 09:48:00,
2015-07-31 02:53:00,71.8,36.9,30.11,SSE,147,2.9,3.0,28,-99.99,,,0.00,meteobridge,2015-07-31 09:53:00,
2015-07-31 02:58:00,71.4,36.7,30.11,ESE,102,0.9,3.0,28,-99.99,,,0.00,meteobridge,2015-07-31 09:58:00,
2015-07-31 03:03:00,71.4,36.7,30.11,East,96,0.0,1.0,28,-99.99,,,0.00,meteobridge,2015-07-31 10:03:00,
2015-07-31 03:08:00,71.4,36.7,30.12,ESE,106,2.0,2.0,28,-99.99,,,0.00,meteobridge,2015-07-31 10:08:00,
2015-07-31 03:13:00,71.2,36.5,30.12,ESE,102,0.0,1.0,28,-99.99,,,0.00,meteobridge,2015-07-31 10:13:00,
2015-07-31 03:18:00,71.2,36.5,30.12,ESE,106,0.0,3.0,28,-99.99,,,0.00,meteobridge,2015-07-31 10:18:00,
2015-07-31 03:23:00,71.1,36.3,30.12,ESE,102,0.0,2.0,28,-99.99,,,0.00,meteobridge,2015-07-31 10:23:00,
2015-07-31 03:28:00,71.1,36.3,30.12,ESE,107,0.9,2.0,28,-99.99,,,0.00,meteobridge,2015-07-31 10:28:00,
2015-07-31 03:33:00,70.9,36.1,30.12,East,96,0.0,2.0,28,-99.99,,,0.00,meteobridge,2015-07-31 10:33:00,
2015-07-31 03:38:00,70.9,36.1,30.13,East,96,0.9,3.0,28,-99.99,,,0.00,meteobridge,2015-07-31 10:38:00,
2015-07-31 03:43:00,70.9,36.1,30.13,SE,145,0.0,2.0,28,-99.99,,,0.00,meteobridge,2015-07-31 10:43:00,
2015-07-31 03:49:00,70.5,36.7,30.13,ESE,107,0.9,3.0,29,-99.99,,,0.00,meteobridge,2015-07-31 10:49:00,
2015-07-31 03:54:00,70.3,36.5,30.13,ESE,104,2.0,3.0,29,-99.99,,,0.00,meteobridge,2015-07-31 10:54:00,
2015-07-31 03:59:00,70.3,35.6,30.13,ESE,107,0.0,1.0,28,-99.99,,,0.00,meteobridge,2015-07-31 10:59:00,
2015-07-31 04:04:00,70.3,35.6,30.13,ESE,109,0.0,2.0,28,-99.99,,,0.00,meteobridge,2015-07-31 11:04:00,
2015-07-31 04:09:00,70.2,36.5,30.14,ESE,113,0.0,3.0,29,-99.99,,,0.00,meteobridge,2015-07-31 11:09:00,
2015-07-31 04:14:00,70.2,36.5,30.14,ESE,113,0.0,0.0,29,-99.99,,,0.00,meteobridge,2015-07-31 11:14:00,
2015-07-31 04:19:00,70.0,36.3,30.14,ESE,113,0.0,1.0,29,-99.99,,,0.00,meteobridge,2015-07-31 11:19:00,
2015-07-31 04:24:00,70.2,37.2,30.14,East,97,0.0,2.0,30,-99.99,,,0.00,meteobridge,2015-07-31 11:24:00,
2015-07-31 04:29:00,70.2,36.5,30.14,East,96,0.0,2.0,29,-99.99,,,0.00,meteobridge,2015-07-31 11:29:00,
2015-07-31 04:34:00,70.2,36.5,30.14,East,79,0.0,2.0,29,-99.99,,,0.00,meteobridge,2015-07-31 11:34:00,
2015-07-31 04:39:00,70.2,36.5,30.15,East,82,0.9,2.0,29,-99.99,,,0.00,meteobridge,2015-07-31 11:39:00,
2015-07-31 04:44:00,70.0,36.3,30.15,East,80,0.0,2.0,29,-99.99,,,0.00,meteobridge,2015-07-31 11:44:00,
2015-07-31 04:49:00,70.0,36.3,30.15,ESE,109,2.9,3.0,29,-99.99,,,0.00,meteobridge,2015-07-31 11:49:00,
2015-07-31 04:55:00,69.8,36.1,30.15,East,88,0.0,1.0,29,-99.99,,,0.00,meteobridge,2015-07-31 11:55:00,
2015-07-31 05:00:00,69.8,37.8,30.15,East,90,0.0,1.0,31,-99.99,,,0.00,meteobridge,2015-07-31 12:00:00,
2015-07-31 05:05:00,69.6,36.9,30.15,East,95,0.0,2.0,30,-99.99,,,0.00,meteobridge,2015-07-31 12:05:00,
2015-07-31 05:10:00,69.8,36.1,30.15,East,96,2.0,2.0,29,-99.99,,,0.00,meteobridge,2015-07-31 12:10:00,
2015-07-31 05:15:00,69.6,36.9,30.15,East,90,0.0,2.0,30,-99.99,,,0.00,meteobridge,2015-07-31 12:15:00,
2015-07-31 05:20:00,69.4,36.7,30.15,SSE,150,2.0,2.0,30,-99.99,,,0.00,meteobridge,2015-07-31 12:20:00,
2015-07-31 05:25:00,69.4,37.4,30.15,ENE,73,0.9,2.0,31,-99.99,,,0.00,meteobridge,2015-07-31 12:25:00,
2015-07-31 05:30:00,69.4,37.4,30.15,ENE,72,0.0,1.0,31,-99.99,,,0.00,meteobridge,2015-07-31 12:30:00,
2015-07-31 05:35:00,69.3,36.5,30.15,ENE,72,0.0,0.0,30,-99.99,,,0.00,meteobridge,2015-07-31 12:35:00,
2015-07-31 05:40:00,69.3,37.4,30.17,ENE,72,0.0,0.0,31,-99.99,,,0.00,meteobridge,2015-07-31 12:40:00,
2015-07-31 05:45:00,69.3,37.4,30.17,ENE,61,0.9,1.0,31,-99.99,,,0.00,meteobridge,2015-07-31 12:45:00,
2015-07-31 05:50:00,69.3,38.1,30.17,ENE,68,0.0,1.0,32,-99.99,,,0.00,meteobridge,2015-07-31 12:50:00,
2015-07-31 05:55:00,69.3,37.4,30.18,ENE,64,0.0,3.0,31,-99.99,,,0.00,meteobridge,2015-07-31 12:55:00,
2015-07-31 06:01:00,69.1,37.2,30.18,ENE,71,0.0,3.0,31,-99.99,,,0.00,meteobridge,2015-07-31 13:01:00,
2015-07-31 06:06:00,69.1,37.2,30.18,ENE,59,0.9,2.0,31,-99.99,,,0.00,meteobridge,2015-07-31 13:06:00,
2015-07-31 06:11:00,69.1,37.2,30.18,ENE,59,0.0,2.0,31,-99.99,,,0.00,meteobridge,2015-07-31 13:11:00,
2015-07-31 06:16:00,68.7,36.9,30.18,ENE,59,0.9,4.0,31,-99.99,,,0.00,meteobridge,2015-07-31 13:16:00,
2015-07-31 06:26:00,68.9,37.8,30.18,East,79,0.0,1.0,32,-99.99,,,0.00,meteobridge,2015-07-31 13:26:00,
2015-07-31 06:31:00,68.9,37.8,30.18,SE,127,2.0,5.0,32,-99.99,,,0.00,meteobridge,2015-07-31 13:31:00,
2015-07-31 06:36:00,68.9,37.8,30.18,ENE,78,0.0,1.0,32,-99.99,,,0.00,meteobridge,2015-07-31 13:36:00,
2015-07-31 06:41:00,68.7,37.6,30.20,ENE,78,0.0,2.0,32,-99.99,,,0.00,meteobridge,2015-07-31 13:41:00,
2015-07-31 06:46:00,68.9,37.8,30.20,ENE,76,0.0,0.0,32,-99.99,,,0.00,meteobridge,2015-07-31 13:46:00,
2015-07-31 06:52:00,69.1,37.9,30.20,ENE,78,0.9,2.0,32,-99.99,,,0.00,meteobridge,2015-07-31 13:52:00,
2015-07-31 06:57:00,69.1,37.9,30.20,ENE,76,0.0,1.0,32,-99.99,,,0.00,meteobridge,2015-07-31 13:57:00,
2015-07-31 07:02:00,69.1,37.9,30.20,ENE,78,0.0,1.0,32,-99.99,,,0.00,meteobridge,2015-07-31 14:02:00,
2015-07-31 07:07:00,69.3,38.1,30.20,ENE,75,0.9,2.0,32,-99.99,,,0.00,meteobridge,2015-07-31 14:07:00,
2015-07-31 07:12:00,69.6,38.5,30.21,East,88,0.0,2.0,32,-99.99,,,0.00,meteobridge,2015-07-31 14:12:00,
2015-07-31 07:17:00,70.0,38.8,30.21,ENE,58,0.9,5.0,32,-99.99,,,0.00,meteobridge,2015-07-31 14:17:00,
2015-07-31 07:22:00,70.9,38.7,30.21,ENE,66,0.0,3.0,31,-99.99,,,0.00,meteobridge,2015-07-31 14:22:00,
2015-07-31 07:27:00,71.6,39.4,30.20,ENE,62,0.0,4.0,31,-99.99,,,0.00,meteobridge,2015-07-31 14:27:00,
2015-07-31 07:32:00,72.1,39.9,30.20,ESE,102,0.0,2.0,31,-99.99,,,0.00,meteobridge,2015-07-31 14:32:00,
2015-07-31 07:37:00,72.5,39.4,30.21,East,85,0.0,2.0,30,-99.99,,,0.00,meteobridge,2015-07-31 14:37:00,
2015-07-31 07:42:00,73.0,40.6,30.21,East,88,0.9,3.0,31,-99.99,,,0.00,meteobridge,2015-07-31 14:42:00,
2015-07-31 07:48:00,73.6,40.3,30.21,East,86,0.0,3.0,30,-99.99,,,0.00,meteobridge,2015-07-31 14:48:00,
2015-07-31 07:53:00,73.8,40.5,30.19,East,83,2.9,3.0,30,-99.99,,,0.00,meteobridge,2015-07-31 14:53:00,
2015-07-31 07:58:00,73.8,39.6,30.19,East,86,0.0,3.0,29,-99.99,,,0.00,meteobridge,2015-07-31 14:58:00,
2015-07-31 08:03:00,73.6,40.3,30.19,ENE,78,0.0,2.0,30,-99.99,,,0.00,meteobridge,2015-07-31 15:03:00,
2015-07-31 08:08:00,73.4,40.1,30.20,East,86,2.0,5.0,30,-99.99,,,0.00,meteobridge,2015-07-31 15:08:00,
2015-07-31 08:13:00,73.6,41.0,30.20,East,92,2.9,3.0,31,-99.99,,,0.00,meteobridge,2015-07-31 15:13:00,
2015-07-31 08:18:00,73.6,41.9,30.20,East,92,0.0,2.0,32,-99.99,,,0.00,meteobridge,2015-07-31 15:18:00,
2015-07-31 08:23:00,73.8,41.2,30.19,SE,128,0.9,3.0,31,-99.99,,,0.00,meteobridge,2015-07-31 15:23:00,
2015-07-31 08:28:00,74.1,42.4,30.19,ESE,123,0.0,0.0,32,-99.99,,,0.00,meteobridge,2015-07-31 15:28:00,
2015-07-31 08:33:00,75.0,43.2,30.19,East,92,0.0,0.0,32,-99.99,,,0.00,meteobridge,2015-07-31 15:33:00,
2015-07-31 08:38:00,76.1,43.3,30.21,East,86,0.9,1.0,31,-99.99,,,0.00,meteobridge,2015-07-31 15:38:00,
2015-07-31 08:43:00,77.4,41.7,30.21,East,93,0.0,2.0,28,-99.99,,,0.00,meteobridge,2015-07-31 15:43:00,
2015-07-31 08:48:00,78.4,42.6,30.21,East,82,0.0,2.0,28,-99.99,,,0.00,meteobridge,2015-07-31 15:48:00,
2015-07-31 08:53:00,79.9,43.0,30.19,NE,42,0.0,1.0,27,-99.99,,,0.00,meteobridge,2015-07-31 15:53:00,
2015-07-31 08:58:00,80.4,43.3,30.19,NE,41,0.0,0.0,27,-99.99,,,0.00,meteobridge,2015-07-31 15:58:00,
2015-07-31 09:03:00,81.0,44.8,30.19,NE,42,0.0,1.0,28,-99.99,,,0.00,meteobridge,2015-07-31 16:03:00,
2015-07-31 09:09:00,81.3,44.1,30.18,NE,41,0.0,1.0,27,-99.99,,,0.00,meteobridge,2015-07-31 16:09:00,
2015-07-31 09:14:00,82.0,44.8,30.18,NE,41,0.9,1.0,27,-99.99,,,0.00,meteobridge,2015-07-31 16:14:00,
2015-07-31 09:19:00,82.2,45.0,30.18,NW,323,0.9,3.0,27,-99.99,,,0.00,meteobridge,2015-07-31 16:19:00,
2015-07-31 09:24:00,82.8,44.4,30.17,NW,323,0.0,2.0,26,-99.99,,,0.00,meteobridge,2015-07-31 16:24:00,
2015-07-31 09:29:00,82.9,43.5,30.17,NW,323,0.0,1.0,25,-99.99,,,0.00,meteobridge,2015-07-31 16:29:00,
2015-07-31 09:34:00,83.1,44.6,30.17,NW,323,0.0,0.0,26,-99.99,,,0.00,meteobridge,2015-07-31 16:34:00,
2015-07-31 09:39:00,83.5,46.9,30.17,NW,323,0.0,0.0,28,-99.99,,,0.00,meteobridge,2015-07-31 16:39:00,
2015-07-31 09:44:00,83.7,46.2,30.17,NW,323,0.0,0.0,27,-99.99,,,0.00,meteobridge,2015-07-31 16:44:00,
2015-07-31 09:49:00,83.8,46.2,30.17,NW,323,0.0,0.0,27,-99.99,,,0.00,meteobridge,2015-07-31 16:49:00,
2015-07-31 09:54:00,83.8,46.2,30.16,NW,323,0.0,0.0,27,-99.99,,,0.00,meteobridge,2015-07-31 16:54:00,
2015-07-31 10:00:00,83.8,47.3,30.16,NW,323,0.0,0.0,28,-99.99,,,0.00,meteobridge,2015-07-31 17:00:00,
2015-07-31 10:05:00,84.0,46.4,30.16,NW,323,0.0,0.0,27,-99.99,,,0.00,meteobridge,2015-07-31 17:05:00,
2015-07-31 10:10:00,84.0,47.5,30.16,NW,323,0.0,0.0,28,-99.99,,,0.00,meteobridge,2015-07-31 17:10:00,
2015-07-31 10:15:00,84.4,45.7,30.16,NW,323,0.0,0.0,26,-99.99,,,0.00,meteobridge,2015-07-31 17:15:00,
2015-07-31 10:20:00,84.7,47.1,30.16,NW,323,0.0,0.0,27,-99.99,,,0.00,meteobridge,2015-07-31 17:20:00,
2015-07-31 10:26:00,85.6,46.8,30.16,NW,323,0.0,1.0,26,-99.99,,,0.00,meteobridge,2015-07-31 17:26:00,
2015-07-31 10:31:00,87.1,46.9,30.16,NW,326,0.0,1.0,25,-99.99,,,0.00,meteobridge,2015-07-31 17:31:00,
2015-07-31 10:36:00,88.3,45.9,30.16,SSE,147,0.0,4.0,23,-99.99,,,0.00,meteobridge,2015-07-31 17:36:00,
2015-07-31 10:41:00,89.8,45.9,30.15,SE,140,0.0,1.0,22,-99.99,,,0.00,meteobridge,2015-07-31 17:41:00,
2015-07-31 10:46:00,90.3,43.9,30.15,SE,144,0.0,0.0,20,-99.99,,,0.00,meteobridge,2015-07-31 17:46:00,
2015-07-31 10:51:00,91.0,44.4,30.15,SSE,160,0.9,2.0,20,-99.99,,,0.00,meteobridge,2015-07-31 17:51:00,
2015-07-31 10:56:00,91.6,43.5,30.14,SSE,160,0.9,2.0,19,-99.99,,,0.00,meteobridge,2015-07-31 17:56:00,
2015-07-31 11:02:00,92.8,45.9,30.14,SSE,160,0.0,2.0,20,-99.99,,,0.00,meteobridge,2015-07-31 18:02:00,
2015-07-31 11:07:00,93.7,45.3,30.14,East,96,2.0,2.0,19,-99.99,,,0.00,meteobridge,2015-07-31 18:07:00,
2015-07-31 11:12:00,93.9,45.3,30.13,SSE,148,0.0,2.0,19,-99.99,,,0.00,meteobridge,2015-07-31 18:12:00,
2015-07-31 11:17:00,94.6,44.6,30.13,East,95,0.0,0.0,18,-99.99,,,0.00,meteobridge,2015-07-31 18:17:00,
2015-07-31 11:22:00,95.4,45.1,30.13,East,89,0.9,3.0,18,-99.99,,,0.00,meteobridge,2015-07-31 18:22:00,
2015-07-31 11:27:00,95.0,41.7,30.12,West,265,2.9,5.0,16,-99.99,,,0.00,meteobridge,2015-07-31 18:27:00,
2015-07-31 11:32:00,94.8,41.7,30.12,NW,319,0.0,1.0,16,-99.99,,,0.00,meteobridge,2015-07-31 18:32:00,
2015-07-31 11:37:00,95.4,43.7,30.12,WNW,284,0.9,6.0,17,-99.99,,,0.00,meteobridge,2015-07-31 18:37:00,
2015-07-31 11:42:00,95.7,43.9,30.13,WNW,295,4.9,7.0,17,-99.99,,,0.00,meteobridge,2015-07-31 18:42:00,
2015-07-31 11:47:00,96.3,42.8,30.13,WNW,292,2.0,7.0,16,-99.99,,,0.00,meteobridge,2015-07-31 18:47:00,
2015-07-31 11:52:00,96.6,43.0,30.13,NNW,335,2.0,4.0,16,-99.99,,,0.00,meteobridge,2015-07-31 18:52:00,
2015-07-31 11:57:00,96.1,44.2,30.11,West,263,2.0,2.0,17,-99.99,,,0.00,meteobridge,2015-07-31 18:57:00,
2015-07-31 12:02:00,96.3,44.4,30.11,WNW,292,2.0,3.0,17,-99.99,,,0.00,meteobridge,2015-07-31 19:02:00,
2015-07-31 12:07:00,96.6,43.0,30.11,NW,326,4.0,5.0,16,-99.99,,,0.00,meteobridge,2015-07-31 19:07:00,
2015-07-31 12:12:00,97.3,43.7,30.11,West,261,2.9,10.0,16,-99.99,,,0.00,meteobridge,2015-07-31 19:12:00,
2015-07-31 12:17:00,97.3,45.3,30.11,NNW,330,2.9,6.0,17,-99.99,,,0.00,meteobridge,2015-07-31 19:17:00,
2015-07-31 12:22:00,96.4,44.6,30.11,West,274,2.0,8.0,17,-99.99,,,0.00,meteobridge,2015-07-31 19:22:00,
2015-07-31 12:28:00,96.1,44.2,30.11,NW,305,2.9,6.0,17,-99.99,,,0.00,meteobridge,2015-07-31 19:28:00,
2015-07-31 12:33:00,95.4,42.1,30.11,WNW,284,2.0,6.0,16,-99.99,,,0.00,meteobridge,2015-07-31 19:33:00,
2015-07-31 12:38:00,94.6,43.0,30.13,NW,304,0.9,6.0,17,-99.99,,,0.00,meteobridge,2015-07-31 19:38:00,
2015-07-31 12:43:00,94.3,42.8,30.13,WNW,295,0.9,6.0,17,-99.99,,,0.00,meteobridge,2015-07-31 19:43:00,
2015-07-31 12:48:00,93.9,42.4,30.13,WNW,292,2.9,5.0,17,-99.99,,,0.00,meteobridge,2015-07-31 19:48:00,
2015-07-31 12:53:00,93.7,42.3,30.14,WSW,258,0.9,7.0,17,-99.99,,,0.00,meteobridge,2015-07-31 19:53:00,
2015-07-31 12:58:00,93.4,42.1,30.14,NW,319,2.0,3.0,17,-99.99,,,0.00,meteobridge,2015-07-31 19:58:00,
2015-07-31 13:03:00,93.4,42.1,30.14,WSW,254,0.9,9.0,17,-99.99,,,0.00,meteobridge,2015-07-31 20:03:00,
2015-07-31 13:08:00,93.2,43.3,30.14,NW,323,2.0,3.0,18,-99.99,,,0.00,meteobridge,2015-07-31 20:08:00,
2015-07-31 13:13:00,92.8,43.2,30.14,WNW,299,6.0,7.0,18,-99.99,,,0.00,meteobridge,2015-07-31 20:13:00,
2015-07-31 13:18:00,92.3,44.1,30.14,NW,320,0.9,3.0,19,-99.99,,,0.00,meteobridge,2015-07-31 20:18:00,
2015-07-31 13:23:00,92.3,42.6,30.14,NNW,342,0.0,5.0,18,-99.99,,,0.00,meteobridge,2015-07-31 20:23:00,
2015-07-31 13:28:00,92.1,43.9,30.14,NNW,333,2.9,5.0,19,-99.99,,,0.00,meteobridge,2015-07-31 20:28:00,
2015-07-31 13:34:00,91.8,43.7,30.14,North,352,4.9,5.0,19,-99.99,,,0.00,meteobridge,2015-07-31 20:34:00,
2015-07-31 13:39:00,91.2,43.2,30.16,North,0,2.0,3.0,19,-99.99,,,0.00,meteobridge,2015-07-31 20:39:00,
2015-07-31 13:44:00,91.2,44.6,30.16,NNW,342,2.9,8.0,20,-99.99,,,0.00,meteobridge,2015-07-31 20:44:00,
2015-07-31 13:49:00,91.2,44.6,30.16,North,359,0.0,2.0,20,-99.99,,,0.00,meteobridge,2015-07-31 20:49:00,
2015-07-31 13:54:00,91.2,44.6,30.15,North,0,0.0,2.0,20,-99.99,,,0.00,meteobridge,2015-07-31 20:54:00,
2015-07-31 13:59:00,91.6,43.5,30.15,NW,312,0.0,2.0,19,-99.99,,,0.00,meteobridge,2015-07-31 20:59:00,
2015-07-31 14:04:00,91.6,43.5,30.15,West,281,0.0,8.0,19,-99.99,,,0.00,meteobridge,2015-07-31 21:04:00,
2015-07-31 14:10:00,91.8,45.0,30.15,NW,323,2.9,8.0,20,-99.99,,,0.00,meteobridge,2015-07-31 21:10:00,
2015-07-31 14:15:00,91.8,45.0,30.15,North,0,4.0,5.0,20,-99.99,,,0.00,meteobridge,2015-07-31 21:15:00,
2015-07-31 14:20:00,91.9,45.1,30.15,North,0,2.0,10.0,20,-99.99,,,0.00,meteobridge,2015-07-31 21:20:00,
2015-07-31 14:25:00,91.9,45.1,30.15,NNE,27,2.9,13.0,20,-99.99,,,0.00,meteobridge,2015-07-31 21:25:00,
2015-07-31 14:30:00,91.9,43.7,30.15,NE,52,2.0,9.0,19,-99.99,,,0.00,meteobridge,2015-07-31 21:30:00,
2015-07-31 14:35:00,92.1,43.9,30.15,NNE,16,0.0,2.0,19,-99.99,,,0.00,meteobridge,2015-07-31 21:35:00,
2015-07-31 14:40:00,92.1,42.4,30.15,North,359,0.0,5.0,18,-99.99,,,0.00,meteobridge,2015-07-31 21:40:00,
2015-07-31 14:45:00,91.9,43.7,30.15,NE,41,6.0,12.0,19,-99.99,,,0.00,meteobridge,2015-07-31 21:45:00,
2015-07-31 14:50:00,91.6,43.5,30.15,North,3,6.0,17.0,19,-99.99,,,0.00,meteobridge,2015-07-31 21:50:00,
2015-07-31 14:55:00,91.0,43.0,30.17,North,352,4.9,14.0,19,-99.99,,,0.00,meteobridge,2015-07-31 21:55:00,
2015-07-31 15:00:00,90.5,42.6,30.17,North,356,2.0,4.0,19,-99.99,,,0.00,meteobridge,2015-07-31 22:00:00,
2015-07-31 15:05:00,89.8,42.1,30.17,North,4,0.0,7.0,19,-99.99,,,0.00,meteobridge,2015-07-31 22:05:00,
2015-07-31 15:10:00,89.2,41.5,30.17,NW,320,4.9,5.0,19,-99.99,,,0.00,meteobridge,2015-07-31 22:10:00,
2015-07-31 15:16:00,89.1,41.4,30.17,NNW,346,0.9,1.0,19,-99.99,,,0.00,meteobridge,2015-07-31 22:16:00,
2015-07-31 15:21:00,88.9,41.4,30.17,NW,318,0.0,2.0,19,-99.99,,,0.00,meteobridge,2015-07-31 22:21:00,
2015-07-31 15:26:00,88.9,41.4,30.16,NW,318,0.0,0.0,19,-99.99,,,0.00,meteobridge,2015-07-31 22:26:00,
2015-07-31 15:31:00,88.9,41.4,30.16,West,263,0.0,4.0,19,-99.99,,,0.00,meteobridge,2015-07-31 22:31:00,
2015-07-31 15:37:00,88.7,41.2,30.16,West,263,0.9,3.0,19,-99.99,,,0.00,meteobridge,2015-07-31 22:37:00,
2015-07-31 15:42:00,88.7,41.2,30.16,WNW,288,0.0,3.0,19,-99.99,,,0.00,meteobridge,2015-07-31 22:42:00,
2015-07-31 15:47:00,89.2,40.3,30.16,WNW,288,0.0,1.0,18,-99.99,,,0.00,meteobridge,2015-07-31 22:47:00,
2015-07-31 15:52:00,89.2,43.0,30.16,WNW,288,0.0,0.0,20,-99.99,,,0.00,meteobridge,2015-07-31 22:52:00,
2015-07-31 15:57:00,90.3,42.4,30.14,WNW,288,0.0,3.0,19,-99.99,,,0.00,meteobridge,2015-07-31 22:57:00,
2015-07-31 16:02:00,91.0,40.1,30.14,SSE,161,0.0,6.0,17,-99.99,,,0.00,meteobridge,2015-07-31 23:02:00,
2015-07-31 16:08:00,91.6,40.6,30.12,SSE,161,2.0,3.0,17,-99.99,,,0.00,meteobridge,2015-07-31 23:08:00,
2015-07-31 16:13:00,91.6,42.1,30.12,SSE,161,0.0,0.0,18,-99.99,,,0.00,meteobridge,2015-07-31 23:13:00,
2015-07-31 16:18:00,91.8,43.7,30.12,SSE,161,0.0,0.0,19,-99.99,,,0.00,meteobridge,2015-07-31 23:18:00,
2015-07-31 16:23:00,91.8,43.7,30.12,SSE,161,2.0,2.0,19,-99.99,,,0.00,meteobridge,2015-07-31 23:23:00,
2015-07-31 16:28:00,91.6,43.5,30.12,ESE,110,0.9,5.0,19,-99.99,,,0.00,meteobridge,2015-07-31 23:28:00,
2015-07-31 16:33:00,91.6,43.5,30.12,East,80,0.9,1.0,19,-99.99,,,0.00,meteobridge,2015-07-31 23:33:00,
2015-07-31 16:38:00,91.6,43.5,30.11,East,80,0.0,1.0,19,-99.99,,,0.00,meteobridge,2015-07-31 23:38:00,
2015-07-31 16:43:00,91.6,43.5,30.11,East,82,0.0,1.0,19,-99.99,,,0.00,meteobridge,2015-07-31 23:43:00,
2015-07-31 16:48:00,91.6,43.5,30.11,East,82,0.0,0.0,19,-99.99,,,0.00,meteobridge,2015-07-31 23:48:00,
2015-07-31 16:54:00,91.6,42.1,30.11,East,82,0.0,0.0,18,-99.99,,,0.00,meteobridge,2015-07-31 23:54:00,
2015-07-31 16:59:00,91.6,43.5,30.11,East,82,0.0,0.0,19,-99.99,,,0.00,meteobridge,2015-07-31 23:59:00,
2015-07-31 17:04:00,91.6,42.1,30.11,East,82,0.0,0.0,18,-99.99,,,0.00,meteobridge,2015-08-01 00:04:00,
2015-07-31 17:09:00,91.2,43.2,30.12,East,82,0.0,0.0,19,-99.99,,,0.00,meteobridge,2015-08-01 00:09:00,
2015-07-31 17:14:00,90.7,45.3,30.12,East,82,0.0,0.0,21,-99.99,,,0.00,meteobridge,2015-08-01 00:14:00,
2015-07-31 17:20:00,90.7,44.1,30.12,East,82,0.9,3.0,20,-99.99,,,0.00,meteobridge,2015-08-01 00:20:00,
2015-07-31 17:25:00,90.7,42.8,30.12,East,80,0.9,1.0,19,-99.99,,,0.00,meteobridge,2015-08-01 00:25:00,
2015-07-31 17:30:00,90.7,41.4,30.12,East,82,0.0,3.0,18,-99.99,,,0.00,meteobridge,2015-08-01 00:30:00,
2015-07-31 17:35:00,90.3,42.4,30.12,East,82,0.0,0.0,19,-99.99,,,0.00,meteobridge,2015-08-01 00:35:00,
2015-07-31 17:40:00,90.1,45.0,30.12,East,82,0.0,0.0,21,-99.99,,,0.00,meteobridge,2015-08-01 00:40:00,
2015-07-31 17:45:00,89.6,43.2,30.12,East,82,0.0,0.0,20,-99.99,,,0.00,meteobridge,2015-08-01 00:45:00,
2015-07-31 17:50:00,89.2,43.0,30.12,East,82,0.0,0.0,20,-99.99,,,0.00,meteobridge,2015-08-01 00:50:00,
2015-07-31 17:55:00,89.1,44.1,30.12,East,82,0.0,0.0,21,-99.99,,,0.00,meteobridge,2015-08-01 00:55:00,
2015-07-31 18:00:00,88.5,43.5,30.12,East,82,0.0,0.0,21,-99.99,,,0.00,meteobridge,2015-08-01 01:00:00,
2015-07-31 18:05:00,88.5,44.8,30.12,East,82,0.0,0.0,22,-99.99,,,0.00,meteobridge,2015-08-01 01:05:00,
2015-07-31 18:11:00,88.3,43.5,30.13,East,82,0.0,0.0,21,-99.99,,,0.00,meteobridge,2015-08-01 01:11:00,
2015-07-31 18:16:00,88.3,44.6,30.13,East,82,0.0,0.0,22,-99.99,,,0.00,meteobridge,2015-08-01 01:16:00,
2015-07-31 18:21:00,88.5,44.8,30.13,East,82,0.0,0.0,22,-99.99,,,0.00,meteobridge,2015-08-01 01:21:00,
2015-07-31 18:26:00,88.5,46.0,30.11,East,82,0.0,0.0,23,-99.99,,,0.00,meteobridge,2015-08-01 01:26:00,
2015-07-31 18:32:00,88.5,47.1,30.11,East,82,0.0,0.0,24,-99.99,,,0.00,meteobridge,2015-08-01 01:32:00,
2015-07-31 18:37:00,88.3,44.6,30.11,East,82,0.0,0.0,22,-99.99,,,0.00,meteobridge,2015-08-01 01:37:00,
2015-07-31 18:42:00,88.3,43.5,30.11,East,82,0.0,1.0,21,-99.99,,,0.00,meteobridge,2015-08-01 01:42:00,
2015-07-31 18:48:00,88.2,43.3,30.11,East,80,0.0,0.0,21,-99.99,,,0.00,meteobridge,2015-08-01 01:48:00,
2015-07-31 18:53:00,88.0,43.2,30.11,East,82,0.0,1.0,21,-99.99,,,0.00,meteobridge,2015-08-01 01:53:00,
2015-07-31 18:58:00,87.8,44.2,30.11,East,82,0.0,2.0,22,-99.99,,,0.00,meteobridge,2015-08-01 01:58:00,
2015-07-31 19:03:00,87.3,42.6,30.11,East,82,0.0,0.0,21,-99.99,,,0.00,meteobridge,2015-08-01 02:03:00,
2015-07-31 19:08:00,86.9,43.5,30.10,East,82,0.0,2.0,22,-99.99,,,0.00,meteobridge,2015-08-01 02:08:00,
2015-07-31 19:13:00,86.4,43.0,30.10,East,82,0.0,1.0,22,-99.99,,,0.00,meteobridge,2015-08-01 02:13:00,
2015-07-31 19:18:00,86.0,42.8,30.10,East,82,0.0,1.0,22,-99.99,,,0.00,meteobridge,2015-08-01 02:18:00,
2015-07-31 19:29:00,85.3,44.4,30.11,East,82,0.0,0.0,24,-99.99,,,0.00,meteobridge,2015-08-01 02:29:00,
2015-07-31 19:34:00,84.9,44.1,30.11,East,82,0.0,1.0,24,-99.99,,,0.00,meteobridge,2015-08-01 02:34:00,
2015-07-31 19:39:00,84.6,45.0,30.11,East,82,0.0,2.0,25,-99.99,,,0.00,meteobridge,2015-08-01 02:39:00,
2015-07-31 19:45:00,84.0,44.4,30.11,East,82,0.9,3.0,25,-99.99,,,0.00,meteobridge,2015-08-01 02:45:00,
2015-07-31 19:50:00,83.8,44.2,30.11,East,80,0.0,3.0,25,-99.99,,,0.00,meteobridge,2015-08-01 02:50:00,
2015-07-31 19:55:00,83.7,44.1,30.11,East,80,0.0,1.0,25,-99.99,,,0.00,meteobridge,2015-08-01 02:55:00,
2015-07-31 20:00:00,83.1,43.7,30.11,East,79,0.0,1.0,25,-99.99,,,0.00,meteobridge,2015-08-01 03:00:00,
2015-07-31 20:05:00,82.9,44.6,30.11,East,79,0.9,2.0,26,-99.99,,,0.00,meteobridge,2015-08-01 03:05:00,
2015-07-31 20:10:00,82.6,43.2,30.12,East,79,0.9,1.0,25,-99.99,,,0.00,meteobridge,2015-08-01 03:10:00,
2015-07-31 20:15:00,82.2,43.0,30.12,East,79,0.0,0.0,25,-99.99,,,0.00,meteobridge,2015-08-01 03:15:00,
2015-07-31 20:20:00,82.0,42.8,30.12,East,79,0.0,1.0,25,-99.99,,,0.00,meteobridge,2015-08-01 03:20:00,
2015-07-31 20:26:00,81.9,42.6,30.12,East,79,0.9,1.0,25,-99.99,,,0.00,meteobridge,2015-08-01 03:26:00,
2015-07-31 20:31:00,81.7,41.4,30.12,East,79,0.0,1.0,24,-99.99,,,0.00,meteobridge,2015-08-01 03:31:00,
2015-07-31 20:36:00,81.7,42.4,30.12,East,79,0.0,1.0,25,-99.99,,,0.00,meteobridge,2015-08-01 03:36:00,
2015-07-31 20:41:00,81.3,41.0,30.09,East,79,0.9,1.0,24,-99.99,,,0.00,meteobridge,2015-08-01 03:41:00,
2015-07-31 20:47:00,81.3,42.1,30.09,East,79,0.9,1.0,25,-99.99,,,0.00,meteobridge,2015-08-01 03:47:00,
2015-07-31 20:52:00,81.1,41.0,30.09,East,79,0.9,2.0,24,-99.99,,,0.00,meteobridge,2015-08-01 03:52:00,
2015-07-31 20:57:00,81.1,41.0,30.09,East,79,0.9,2.0,24,-99.99,,,0.00,meteobridge,2015-08-01 03:57:00,
2015-07-31 21:02:00,81.1,41.0,30.09,ENE,78,2.0,2.0,24,-99.99,,,0.00,meteobridge,2015-08-01 04:02:00,
2015-07-31 21:07:00,81.0,40.8,30.09,ENE,78,2.0,2.0,24,-99.99,,,0.00,meteobridge,2015-08-01 04:07:00,
2015-07-31 21:12:00,80.6,40.5,30.09,ENE,78,0.9,3.0,24,-99.99,,,0.00,meteobridge,2015-08-01 04:12:00,
2015-07-31 21:17:00,80.4,40.3,30.09,NE,41,2.9,8.0,24,-99.99,,,0.00,meteobridge,2015-08-01 04:17:00,
2015-07-31 21:22:00,80.4,40.3,30.09,NE,37,0.9,3.0,24,-99.99,,,0.00,meteobridge,2015-08-01 04:22:00,
2015-07-31 21:27:00,80.2,40.1,30.10,NE,37,4.9,5.0,24,-99.99,,,0.00,meteobridge,2015-08-01 04:27:00,
2015-07-31 21:32:00,80.1,40.1,30.10,NNE,31,4.9,6.0,24,-99.99,,,0.00,meteobridge,2015-08-01 04:32:00,
2015-07-31 21:37:00,79.9,39.9,30.10,NE,55,0.9,3.0,24,-99.99,,,0.00,meteobridge,2015-08-01 04:37:00,
2015-07-31 21:42:00,79.7,40.8,30.09,NE,47,0.0,1.0,25,-99.99,,,0.00,meteobridge,2015-08-01 04:42:00,
2015-07-31 21:47:00,79.5,39.6,30.09,NE,47,0.0,2.0,24,-99.99,,,0.00,meteobridge,2015-08-01 04:47:00,
2015-07-31 21:52:00,79.2,41.4,30.09,NE,47,0.0,2.0,26,-99.99,,,0.00,meteobridge,2015-08-01 04:52:00,
2015-07-31 21:58:00,78.6,39.9,30.09,NE,47,0.0,3.0,25,-99.99,,,0.00,meteobridge,2015-08-01 04:58:00,
2015-07-31 22:03:00,78.6,38.8,30.09,NE,48,0.9,2.0,24,-99.99,,,0.00,meteobridge,2015-08-01 05:03:00,
2015-07-31 22:08:00,78.3,38.5,30.11,NE,49,0.9,2.0,24,-99.99,,,0.00,meteobridge,2015-08-01 05:08:00,
2015-07-31 22:13:00,78.1,39.4,30.11,NE,48,2.0,2.0,25,-99.99,,,0.00,meteobridge,2015-08-01 05:13:00,
2015-07-31 22:18:00,77.7,41.0,30.11,NE,56,2.0,6.0,27,-99.99,,,0.00,meteobridge,2015-08-01 05:18:00,
2015-07-31 22:23:00,77.5,41.0,30.10,NE,56,0.9,2.0,27,-99.99,,,0.00,meteobridge,2015-08-01 05:23:00,
2015-07-31 22:28:00,77.2,41.5,30.10,ENE,61,0.0,2.0,28,-99.99,,,0.00,meteobridge,2015-08-01 05:28:00,
2015-07-31 22:33:00,76.8,40.3,30.10,ENE,58,0.0,1.0,27,-99.99,,,0.00,meteobridge,2015-08-01 05:33:00,
2015-07-31 22:38:00,76.6,39.2,30.06,ENE,58,0.9,2.0,26,-99.99,,,0.00,meteobridge,2015-08-01 05:38:00,
2015-07-31 22:43:00,76.5,37.9,30.06,ENE,58,0.9,1.0,25,-99.99,,,0.00,meteobridge,2015-08-01 05:43:00,
2015-07-31 22:48:00,76.1,38.7,30.06,ENE,58,0.9,2.0,26,-99.99,,,0.00,meteobridge,2015-08-01 05:48:00,
2015-07-31 22:54:00,75.7,38.5,30.06,ENE,58,0.0,1.0,26,-99.99,,,0.00,meteobridge,2015-08-01 05:54:00,
2015-07-31 22:59:00,75.7,39.4,30.06,East,79,4.9,7.0,27,-99.99,,,0.00,meteobridge,2015-08-01 05:59:00,
2015-07-31 23:04:00,75.6,39.2,30.06,East,92,0.9,5.0,27,-99.99,,,0.00,meteobridge,2015-08-01 06:04:00,
2015-07-31 23:09:00,75.4,40.1,30.06,ENE,75,0.9,2.0,28,-99.99,,,0.00,meteobridge,2015-08-01 06:09:00,
2015-07-31 23:14:00,75.4,40.1,30.06,ENE,75,4.0,6.0,28,-99.99,,,0.00,meteobridge,2015-08-01 06:14:00,
2015-07-31 23:19:00,74.8,39.6,30.06,ENE,76,0.9,2.0,28,-99.99,,,0.00,meteobridge,2015-08-01 06:19:00,
2015-07-31 23:24:00,74.7,39.4,30.07,ENE,75,0.0,1.0,28,-99.99,,,0.00,meteobridge,2015-08-01 06:24:00,
2015-07-31 23:30:00,74.1,39.0,30.07,ENE,76,0.9,2.0,28,-99.99,,,0.00,meteobridge,2015-08-01 06:30:00,
2015-07-31 23:35:00,74.1,39.0,30.07,ENE,75,0.0,2.0,28,-99.99,,,0.00,meteobridge,2015-08-01 06:35:00,
2015-07-31 23:40:00,73.9,38.8,30.06,ENE,75,2.0,2.0,28,-99.99,,,0.00,meteobridge,2015-08-01 06:40:00,